Regional Weather Roundup
Issued by NWS

Home | Current Version | Previous Version | Graphics & Text | Print | Product List | Glossary On
Versions: 1 2 3 4 5 6 7 8 9 10 11 12 13 14 15 16 17 18 19 20 21 22 23 24 25 26 27 28 29 30 31 32 33 34 35 36 37 38 39 40 41 42 43 44 45 46 47 48 49 50
885
ASUS44 KLIX 201705
RWRLA
LOUISIANA WEATHER ROUNDUP
NATIONAL WEATHER SERVICE NEW ORLEANS LA
1100 AM CST SAT DEC 20 2014

NOTE: "FAIR" INDICATES FEW OR NO CLOUDS BELOW 12,000 FEET WITH NO
      SIGNIFICANT WEATHER AND/OR OBSTRUCTIONS TO VISIBILITY.
      SKY/WX - SKY CONDITION AND SIGNIFICANT WEATHER.
      TMP - AIR TEMPERATURE.    DP   - DEWPOINT TEMPERATURE.
      RH  - RELATIVE HUMIDITY.  PRES - PRESSURE.
      HX  - HEAT INDEX.         WCI  - WIND CHILL INDEX.

*  THESE STATIONS ARE NOT NWS OR FAA STATIONS AND ARE NOT UNDER
   NWS QUALITY CONTROL.

LAZ040-048-061>063-065-066-069-201800-
SOUTHEAST LOUISIANA

CITY           SKY/WX    TMP DP  RH WIND       PRES   REMARKS
N.O. AUDUBON     N/A     55  50  82 MISG        N/A
N.O. INTL ARPT CLOUDY    52  48  86 N15       30.16S
N.O. LAKEFRONT CLOUDY    54  48  80 NE14      30.17S
N.O. DOWNTOWN* CLOUDY    54  45  71 N8        30.16F
SLIDELL        CLOUDY    52  47  83 N12       30.16S
BATON ROUGE    CLOUDY    50  46  86 N5        30.19S
BOOTHVILLE     CLOUDY    56  53  90 NE12G21   30.13S
BELLE CHASSE   PTSUNNY   55  50  83 NE12G18   30.14F
BOGALUSA*        N/A     51  46  83 NE8       30.20S
GALLIANO*      CLOUDY    55  52  90 MISG      30.14F
NEW ROADS*     CLOUDY    48  47  94 N12       30.20S
GONZALES*      CLOUDY    50  50 100 N6        30.17F
HAMMOND*       NOT AVBL
HOUMA*         CLOUDY    54  52  94 NE14      30.14F
PORT FOURCHON* CLOUDY    55  52  88 N15       30.16S

$$

LAZ041-044-053-054-201800-
SOUTHWEST LOUISIANA

CITY           SKY/WX    TMP DP  RH WIND       PRES   REMARKS
LAKE CHARLES   CLOUDY    51  48  89 N9        30.20S
LAFAYETTE      CLOUDY    50  48  93 N13       30.19S FOG
PATTERSON      CLOUDY    52  48  87 N13       30.16F
SALT POINT       N/A     56  50  80 VRB7      30.14F
NEW IBERIA     CLOUDY    51  48  89 N13       30.19S
CHENAULT AIRPK CLOUDY    48  46  93 N7        30.21S

$$

LAZ027-028-201800-
CENTRAL LOUISIANA

CITY           SKY/WX    TMP DP  RH WIND       PRES   REMARKS
FORT POLK      CLOUDY    49  45  87 NE8       30.21F
ALEXANDRIA INT LGT RAIN  50  44  80 N10       30.22S
ALEXANDRIA     PTSUNNY   49  44  83 VRB6      30.23F

$$

LAZ001-002-201800-
NORTHWEST LOUISIANA

CITY           SKY/WX    TMP DP  RH WIND       PRES   REMARKS
SHREVEPORT     CLOUDY    45  43  93 NE6       30.26F FOG
BARKSDALE AFB  NOT AVBL
DTN SHREVEPORT CLOUDY    44  41  89 NE5       30.27S FOG

$$

LAZ014-016-201800-
NORTHEAST LOUISIANA

CITY           SKY/WX    TMP DP  RH WIND       PRES   REMARKS
MONROE         MOSUNNY   50  42  74 E9        30.27F
TALLULAH       SUNNY     50  42  74 NE8       30.25F

$$




USA.gov is the U.S. government's official web portal to all federal, state and local government web resources and services.